TRA4U EHAM-LGIR

Flight info

Callsign TRA4U
Flight time 3h 16m
Altitude 35000
Route EDUPO Z739 MISGO DCT DOJOH DCT DODEN DCT NEGIX DCT DINKU DCT XERUM DCT BAVAX DCT RADIZ DCT NIPEL DCT ABISO DCT NEMEK DCT VRANA DCT PETAK DCT PINDO UL607 GIVIS T514 XAVIS
Aircraft B738/M-SDE2E3FGHIRWXY/LB1

Departure

Time 2026-05-06 14:28
Airport Amsterdam Airport Schiphol (EHAM)

Arrival

Time 2026-05-06 17:44
Airport Heraklion International Nikos Kazantzakis Airport (LGIR)
Time Latitude Longitude Altitude Speed Heading
2026-05-06 13:01 52.31112 4.76721 -3 ft 0 kts 303°
2026-05-06 14:15 52.31112 4.76722 -3 ft 2 kts 303°
2026-05-06 14:15 52.31098 4.76755 -3 ft 4 kts 304°
2026-05-06 14:15 52.31082 4.76791 -3 ft 4 kts 309°
2026-05-06 14:15 52.31064 4.76821 -3 ft 4 kts 331°
2026-05-06 14:16 52.31045 4.76827 -3 ft 2 kts 32°
2026-05-06 14:16 52.31044 4.76826 -3 ft 5 kts 33°
2026-05-06 14:19 52.31045 4.76827 -3 ft 0 kts 33°
2026-05-06 14:19 52.31058 4.76840 -3 ft 4 kts 33°
2026-05-06 14:19 52.31086 4.76906 -3 ft 12 kts 78°
2026-05-06 14:19 52.31083 4.77079 -3 ft 16 kts 93°
2026-05-06 14:20 52.31078 4.77268 -3 ft 17 kts 92°
2026-05-06 14:20 52.31072 4.77444 -3 ft 14 kts 111°
2026-05-06 14:20 52.30985 4.77481 -3 ft 14 kts 183°
2026-05-06 14:20 52.30893 4.77473 -3 ft 13 kts 183°
2026-05-06 14:21 52.30803 4.77464 -3 ft 13 kts 183°
2026-05-06 14:21 52.30716 4.77457 -3 ft 12 kts 183°
2026-05-06 14:21 52.30639 4.77413 -3 ft 12 kts 229°
2026-05-06 14:21 52.30594 4.77299 -3 ft 12 kts 238°
2026-05-06 14:22 52.30551 4.77186 -3 ft 12 kts 238°
2026-05-06 14:22 52.30509 4.77076 -3 ft 11 kts 238°
2026-05-06 14:22 52.30466 4.76967 -4 ft 12 kts 237°
2026-05-06 14:22 52.30418 4.76842 -3 ft 14 kts 238°
2026-05-06 14:23 52.30362 4.76698 -3 ft 16 kts 238°
2026-05-06 14:23 52.30301 4.76536 -3 ft 18 kts 238°
2026-05-06 14:23 52.30233 4.76362 -3 ft 19 kts 238°
2026-05-06 14:23 52.30160 4.76171 -3 ft 20 kts 238°
2026-05-06 14:24 52.30082 4.75967 -3 ft 22 kts 238°
2026-05-06 14:24 52.29999 4.75751 -3 ft 23 kts 238°
2026-05-06 14:24 52.29912 4.75524 -3 ft 24 kts 238°
2026-05-06 14:24 52.29832 4.75281 -3 ft 24 kts 264°
2026-05-06 14:25 52.29914 4.75057 -3 ft 23 kts 312°
2026-05-06 14:25 52.30017 4.74867 -3 ft 22 kts 311°
2026-05-06 14:25 52.30119 4.74680 1 ft 22 kts 311°
2026-05-06 14:25 52.30217 4.74498 7 ft 21 kts 311°
2026-05-06 14:26 52.30318 4.74311 0 ft 25 kts 310°
2026-05-06 14:26 52.30426 4.74076 -3 ft 26 kts 277°
2026-05-06 14:26 52.30412 4.73817 -4 ft 21 kts 274°
2026-05-06 14:26 52.30454 4.73758 -4 ft 7 kts
2026-05-06 14:27 52.30458 4.73758 -4 ft 0 kts
2026-05-06 14:27 52.30466 4.73759 -4 ft 12 kts
2026-05-06 14:28 52.30850 4.73794 -3 ft 96 kts
2026-05-06 14:28 52.31755 4.73867 40 ft 161 kts
2026-05-06 14:28 52.32981 4.73975 606 ft 190 kts
2026-05-06 14:28 52.34332 4.74383 1398 ft 204 kts 21°
2026-05-06 14:29 52.35620 4.75252 2433 ft 204 kts 25°
2026-05-06 14:29 52.36967 4.76227 2990 ft 214 kts 26°
2026-05-06 14:29 52.38219 4.77528 3600 ft 216 kts 45°
2026-05-06 14:29 52.39279 4.79334 4109 ft 223 kts 46°
2026-05-06 14:30 52.40372 4.81193 4734 ft 227 kts 46°
2026-05-06 14:30 52.41459 4.83037 5340 ft 229 kts 48°
2026-05-06 14:30 52.42258 4.85344 5759 ft 243 kts 75°
2026-05-06 14:30 52.42448 4.88157 6392 ft 252 kts 88°
2026-05-06 14:31 52.42451 4.91087 7067 ft 259 kts 89°
2026-05-06 14:31 52.42440 4.94037 7700 ft 265 kts 89°
2026-05-06 14:31 52.42309 4.97098 8330 ft 275 kts 104°
2026-05-06 14:31 52.41397 4.99901 8947 ft 286 kts 131°
2026-05-06 14:32 52.39857 5.01998 9679 ft 291 kts 144°
2026-05-06 14:32 52.38169 5.03895 10261 ft 299 kts 145°
2026-05-06 14:32 52.36390 5.05892 10436 ft 321 kts 145°
2026-05-06 14:32 52.34487 5.08059 10632 ft 342 kts 145°
2026-05-06 14:33 52.32590 5.10531 11100 ft 352 kts 135°
2026-05-06 14:33 52.30937 5.13465 11666 ft 358 kts 130°
2026-05-06 14:33 52.29327 5.16587 12408 ft 360 kts 130°
2026-05-06 14:33 52.27671 5.19738 12920 ft 369 kts 131°
2026-05-06 14:34 52.25964 5.22884 13702 ft 370 kts 132°
2026-05-06 14:34 52.24246 5.26033 14250 ft 375 kts 130°
2026-05-06 14:34 52.22646 5.29406 14918 ft 376 kts 126°
2026-05-06 14:34 52.21141 5.32902 15593 ft 378 kts 125°
2026-05-06 14:35 52.19636 5.36481 16116 ft 383 kts 125°
2026-05-06 14:35 52.18147 5.40008 16859 ft 382 kts 126°
2026-05-06 14:35 52.16602 5.43624 17413 ft 387 kts 126°
2026-05-06 14:35 52.15066 5.47179 18015 ft 389 kts 127°
2026-05-06 14:36 52.13498 5.50782 18594 ft 390 kts 127°
2026-05-06 14:36 52.11919 5.54396 19082 ft 394 kts 127°
2026-05-06 14:36 52.10312 5.58066 19564 ft 397 kts 127°
2026-05-06 14:36 52.08707 5.61728 20059 ft 400 kts 127°
2026-05-06 14:37 52.07102 5.65380 20549 ft 402 kts 127°
2026-05-06 14:37 52.05437 5.69064 21015 ft 405 kts 130°
2026-05-06 14:37 52.03601 5.72581 21475 ft 408 kts 133°
2026-05-06 14:37 52.01692 5.76035 21929 ft 411 kts 133°
2026-05-06 14:38 51.99785 5.79517 22371 ft 414 kts 133°
2026-05-06 14:38 51.97901 5.83014 22817 ft 418 kts 133°
2026-05-06 14:38 51.95984 5.86598 23259 ft 421 kts 132°
2026-05-06 14:38 51.94056 5.90195 23656 ft 424 kts 133°
2026-05-06 14:39 51.92112 5.93814 24030 ft 426 kts 132°
2026-05-06 14:39 51.90819 5.96217 24289 ft 427 kts 132°
2026-05-06 14:39 51.88863 5.99851 24684 ft 428 kts 133°
2026-05-06 14:39 51.86897 6.03495 25062 ft 430 kts 133°
2026-05-06 14:40 51.84925 6.07142 25444 ft 431 kts 133°
2026-05-06 14:40 51.82956 6.10754 25827 ft 432 kts 133°
2026-05-06 14:40 51.80959 6.14402 26215 ft 433 kts 133°
2026-05-06 14:40 51.78960 6.18054 26587 ft 434 kts 133°
2026-05-06 14:41 51.76952 6.21718 26954 ft 436 kts 133°
2026-05-06 14:41 51.74934 6.25399 27302 ft 437 kts 133°
2026-05-06 14:41 51.72920 6.29077 27652 ft 438 kts 133°
2026-05-06 14:41 51.70923 6.32720 27996 ft 438 kts 133°
2026-05-06 14:42 51.68928 6.36357 28332 ft 439 kts 133°
2026-05-06 14:42 51.66907 6.40037 28675 ft 440 kts 133°
2026-05-06 14:42 51.64867 6.43743 28961 ft 442 kts 133°
2026-05-06 14:42 51.62850 6.47399 29214 ft 444 kts 133°
2026-05-06 14:43 51.60786 6.51136 29519 ft 445 kts 133°
2026-05-06 14:43 51.58844 6.54644 29903 ft 443 kts 133°
2026-05-06 14:43 51.57179 6.57652 30207 ft 442 kts 133°
2026-05-06 14:43 51.55127 6.61353 30497 ft 442 kts 133°
2026-05-06 14:44 51.53077 6.65047 30746 ft 443 kts 133°
2026-05-06 14:44 51.51022 6.68745 31012 ft 443 kts 133°
2026-05-06 14:44 51.48968 6.72435 31282 ft 443 kts 133°
2026-05-06 14:45 51.44877 6.79774 31883 ft 443 kts 133°
2026-05-06 14:45 51.42809 6.83474 32217 ft 444 kts 133°
2026-05-06 14:45 51.40744 6.87159 32563 ft 444 kts 134°
2026-05-06 14:45 51.38642 6.90681 32986 ft 442 kts 137°
2026-05-06 14:46 51.36448 6.94126 33311 ft 442 kts 138°
2026-05-06 14:46 51.34216 6.97537 33582 ft 443 kts 139°
2026-05-06 14:46 51.31988 7.00919 33867 ft 441 kts 139°
2026-05-06 14:46 51.29749 7.04330 34095 ft 441 kts 139°
2026-05-06 14:47 51.27556 7.07685 34234 ft 442 kts 138°
2026-05-06 14:47 51.25336 7.11093 34435 ft 443 kts 139°
2026-05-06 14:47 51.23322 7.14192 34609 ft 443 kts 139°
2026-05-06 14:47 51.21099 7.17613 34794 ft 442 kts 139°
2026-05-06 14:48 51.18882 7.21023 34829 ft 445 kts 139°
2026-05-06 14:48 51.14440 7.27841 34818 ft 445 kts 139°
2026-05-06 14:49 51.10000 7.34638 34829 ft 441 kts 139°
2026-05-06 14:49 51.05565 7.41405 34820 ft 440 kts 139°
2026-05-06 14:50 51.01171 7.48090 34823 ft 438 kts 139°
2026-05-06 14:50 50.96772 7.54766 34824 ft 437 kts 139°
2026-05-06 14:51 50.92365 7.61434 34817 ft 438 kts 139°
2026-05-06 14:51 50.87945 7.68108 34806 ft 439 kts 139°
2026-05-06 14:52 50.83537 7.74742 34804 ft 440 kts 140°
2026-05-06 14:52 50.79050 7.81428 34785 ft 442 kts 140°
2026-05-06 14:53 50.74564 7.88080 34784 ft 443 kts 140°
2026-05-06 14:53 50.70085 7.94713 34774 ft 444 kts 140°
2026-05-06 14:54 50.65569 8.01388 34772 ft 445 kts 140°
2026-05-06 14:54 50.61070 8.08019 34776 ft 445 kts 140°
2026-05-06 14:55 50.56966 8.15354 34785 ft 448 kts 131°
2026-05-06 14:55 50.53132 8.23096 34777 ft 447 kts 131°
2026-05-06 14:56 50.49282 8.30774 34783 ft 446 kts 132°
2026-05-06 14:56 50.45401 8.38385 34787 ft 444 kts 132°
2026-05-06 14:57 50.41556 8.45886 34788 ft 443 kts 132°
2026-05-06 14:57 50.37681 8.53409 34781 ft 441 kts 134°
2026-05-06 14:58 50.33585 8.60524 34764 ft 438 kts 137°
2026-05-06 14:58 50.29383 8.67425 34770 ft 437 kts 137°
2026-05-06 14:59 50.25218 8.74280 34763 ft 436 kts 137°
2026-05-06 14:59 50.21033 8.81218 34777 ft 436 kts 137°
2026-05-06 15:00 50.16891 8.88094 34763 ft 438 kts 137°
2026-05-06 15:00 50.12709 8.95022 34770 ft 438 kts 137°
2026-05-06 15:01 50.08513 9.01956 34771 ft 439 kts 137°
2026-05-06 15:01 50.04312 9.08875 34776 ft 440 kts 137°
2026-05-06 15:02 50.00104 9.15788 34767 ft 442 kts 137°
2026-05-06 15:02 49.95860 9.22740 34772 ft 443 kts 138°
2026-05-06 15:03 49.91621 9.29666 34778 ft 444 kts 138°
2026-05-06 15:03 49.87355 9.36618 34774 ft 445 kts 138°
2026-05-06 15:04 49.83079 9.43566 34776 ft 446 kts 139°
2026-05-06 15:04 49.78782 9.50530 34775 ft 445 kts 139°
2026-05-06 15:05 49.74500 9.57450 34771 ft 445 kts 139°
2026-05-06 15:05 49.70231 9.64330 34772 ft 444 kts 139°
2026-05-06 15:06 49.65951 9.71210 34787 ft 443 kts 140°
2026-05-06 15:06 49.61688 9.78043 34790 ft 442 kts 140°
2026-05-06 15:07 49.57421 9.84865 34792 ft 441 kts 140°
2026-05-06 15:07 49.53163 9.91653 34798 ft 440 kts 140°
2026-05-06 15:08 49.48910 9.98415 34804 ft 439 kts 141°
2026-05-06 15:08 49.44659 10.05156 34800 ft 439 kts 141°
2026-05-06 15:09 49.40423 10.11857 34801 ft 438 kts 141°
2026-05-06 15:09 49.36163 10.18578 34800 ft 439 kts 141°
2026-05-06 15:10 49.31911 10.25268 34799 ft 439 kts 141°
2026-05-06 15:10 49.27642 10.31972 34799 ft 440 kts 141°
2026-05-06 15:11 49.23290 10.38467 34796 ft 434 kts 148°
2026-05-06 15:11 49.18257 10.43336 34799 ft 427 kts 156°
2026-05-06 15:12 49.13115 10.47910 34803 ft 428 kts 156°
2026-05-06 15:12 49.07986 10.52526 34795 ft 429 kts 155°
2026-05-06 15:13 49.02851 10.57179 34791 ft 430 kts 155°
2026-05-06 15:13 48.97691 10.61854 34790 ft 429 kts 155°
2026-05-06 15:14 48.92566 10.66483 34797 ft 428 kts 156°
2026-05-06 15:14 48.87454 10.71090 34793 ft 429 kts 156°
2026-05-06 15:15 48.82358 10.75748 34776 ft 431 kts 152°
2026-05-06 15:15 48.77857 10.82000 34779 ft 442 kts 139°
2026-05-06 15:16 48.73782 10.88959 34755 ft 441 kts 139°
2026-05-06 15:16 48.69731 10.95855 34746 ft 440 kts 139°
2026-05-06 15:17 48.65640 11.02728 34759 ft 440 kts 140°
2026-05-06 15:17 48.61494 11.09637 34747 ft 443 kts 140°
2026-05-06 15:18 48.57371 11.16489 34739 ft 442 kts 140°
2026-05-06 15:18 48.53225 11.23368 34739 ft 441 kts 140°
2026-05-06 15:19 48.49099 11.30194 34742 ft 439 kts 140°
2026-05-06 15:19 48.45350 11.36380 34743 ft 439 kts 140°
2026-05-06 15:20 48.41233 11.43158 34750 ft 438 kts 140°
2026-05-06 15:20 48.37119 11.49910 34750 ft 439 kts 140°
2026-05-06 15:21 48.32975 11.56699 34758 ft 439 kts 140°
2026-05-06 15:21 48.28835 11.63466 34763 ft 439 kts 140°
2026-05-06 15:22 48.24651 11.70051 34767 ft 436 kts 144°
2026-05-06 15:22 48.20186 11.76197 34758 ft 434 kts 146°
2026-05-06 15:23 48.15676 11.82256 34749 ft 435 kts 145°
2026-05-06 15:23 48.11205 11.88315 34739 ft 436 kts 145°
2026-05-06 15:24 48.06710 11.94441 34729 ft 437 kts 145°
2026-05-06 15:24 48.02964 11.99547 34711 ft 438 kts 145°
2026-05-06 15:25 47.98438 12.05703 34702 ft 439 kts 145°
2026-05-06 15:25 47.93933 12.11813 34699 ft 440 kts 146°
2026-05-06 15:26 47.89394 12.17954 34701 ft 440 kts 146°
2026-05-06 15:26 47.84875 12.24052 34698 ft 440 kts 146°
2026-05-06 15:27 47.80328 12.30173 34699 ft 440 kts 146°
2026-05-06 15:27 47.75760 12.36307 34706 ft 440 kts 146°
2026-05-06 15:28 47.71228 12.42379 34693 ft 441 kts 146°
2026-05-06 15:28 47.66672 12.48469 34690 ft 440 kts 146°
2026-05-06 15:29 47.62123 12.54536 34693 ft 439 kts 146°
2026-05-06 15:29 47.57624 12.60592 34700 ft 439 kts 145°
2026-05-06 15:30 47.53105 12.66701 34708 ft 438 kts 146°
2026-05-06 15:30 47.48618 12.72748 34708 ft 437 kts 146°
2026-05-06 15:31 47.44141 12.78764 34711 ft 435 kts 146°
2026-05-06 15:31 47.39693 12.84720 34729 ft 432 kts 146°
2026-05-06 15:32 47.33011 12.93638 34721 ft 429 kts 146°
2026-05-06 15:32 47.28592 12.99516 34751 ft 434 kts 146°
2026-05-06 15:33 47.24087 13.05491 34759 ft 437 kts 146°
2026-05-06 15:33 47.19521 13.11534 34781 ft 442 kts 145°
2026-05-06 15:34 47.14939 13.17588 34784 ft 448 kts 145°
2026-05-06 15:34 47.10293 13.23724 34809 ft 446 kts 145°
2026-05-06 15:35 47.05716 13.29756 34811 ft 439 kts 145°
2026-05-06 15:35 47.01176 13.35710 34818 ft 439 kts 145°
2026-05-06 15:36 46.96608 13.41685 34827 ft 438 kts 145°
2026-05-06 15:36 46.92068 13.47613 34879 ft 437 kts 145°
2026-05-06 15:37 46.87514 13.53542 34853 ft 441 kts 145°
2026-05-06 15:37 46.82935 13.59491 34860 ft 444 kts 145°
2026-05-06 15:38 46.78285 13.65520 34866 ft 447 kts 144°
2026-05-06 15:38 46.73612 13.71565 34872 ft 449 kts 144°
2026-05-06 15:39 46.68936 13.77603 34880 ft 449 kts 144°
2026-05-06 15:39 46.64263 13.83620 34874 ft 448 kts 145°
2026-05-06 15:40 46.59598 13.89610 34865 ft 446 kts 145°
2026-05-06 15:40 46.54967 13.95546 34864 ft 444 kts 144°
2026-05-06 15:41 46.50329 14.01475 34862 ft 441 kts 145°
2026-05-06 15:41 46.45806 14.07471 34890 ft 441 kts 142°
2026-05-06 15:42 46.41446 14.13719 34885 ft 443 kts 141°
2026-05-06 15:42 46.37072 14.19956 34925 ft 444 kts 141°
2026-05-06 15:43 46.32629 14.26203 34929 ft 444 kts 142°
2026-05-06 15:43 46.28180 14.32429 34941 ft 445 kts 141°
2026-05-06 15:44 46.23727 14.38652 34939 ft 446 kts 141°
2026-05-06 15:44 46.19264 14.44891 34942 ft 446 kts 141°
2026-05-06 15:45 46.14821 14.51092 34931 ft 447 kts 141°
2026-05-06 15:45 46.10482 14.57134 34934 ft 447 kts 141°
2026-05-06 15:46 46.06013 14.63342 34936 ft 447 kts 142°
2026-05-06 15:46 46.01533 14.69548 34924 ft 447 kts 142°
2026-05-06 15:47 45.97047 14.75749 34924 ft 447 kts 141°
2026-05-06 15:47 45.92556 14.81942 34926 ft 448 kts 141°
2026-05-06 15:48 45.88091 14.88086 34925 ft 447 kts 141°
2026-05-06 15:48 45.83594 14.94258 34919 ft 448 kts 142°
2026-05-06 15:49 45.79092 15.00424 34917 ft 448 kts 142°
2026-05-06 15:49 45.74590 15.06575 34920 ft 447 kts 142°
2026-05-06 15:50 45.70083 15.12718 34913 ft 447 kts 142°
2026-05-06 15:50 45.65576 15.18849 34906 ft 447 kts 141°
2026-05-06 15:51 45.61066 15.24969 34917 ft 447 kts 141°
2026-05-06 15:51 45.56552 15.31065 34919 ft 446 kts 142°
2026-05-06 15:52 45.51960 15.36992 34912 ft 445 kts 143°
2026-05-06 15:52 45.47335 15.42858 34924 ft 445 kts 143°
2026-05-06 15:53 45.42707 15.48736 34916 ft 445 kts 143°
2026-05-06 15:53 45.38117 15.54575 34920 ft 446 kts 143°
2026-05-06 15:54 45.33487 15.60461 34919 ft 447 kts 143°
2026-05-06 15:54 45.28847 15.66348 34924 ft 448 kts 143°
2026-05-06 15:55 45.24195 15.72236 34924 ft 449 kts 143°
2026-05-06 15:55 45.19529 15.78127 34925 ft 449 kts 143°
2026-05-06 15:56 45.14850 15.84022 34930 ft 451 kts 143°
2026-05-06 15:56 45.10153 15.89926 34921 ft 452 kts 143°
2026-05-06 15:57 45.05450 15.95825 34926 ft 452 kts 143°
2026-05-06 15:57 45.00750 16.01707 34946 ft 451 kts 143°
2026-05-06 15:58 44.96048 16.07577 34933 ft 451 kts 144°
2026-05-06 15:58 44.91350 16.13427 34934 ft 451 kts 144°
2026-05-06 15:59 44.86638 16.19282 34940 ft 451 kts 144°
2026-05-06 15:59 44.81921 16.25130 34944 ft 452 kts 144°
2026-05-06 16:00 44.77592 16.30485 34940 ft 452 kts 144°
2026-05-06 16:00 44.72869 16.36318 34944 ft 449 kts 144°
2026-05-06 16:01 44.68194 16.42077 34956 ft 449 kts 144°
2026-05-06 16:01 44.63481 16.47867 34948 ft 449 kts 144°
2026-05-06 16:02 44.58777 16.53632 34968 ft 455 kts 144°
2026-05-06 16:02 44.53978 16.59500 34963 ft 458 kts 144°
2026-05-06 16:03 44.49150 16.65395 34964 ft 460 kts 144°
2026-05-06 16:03 44.44317 16.71283 34966 ft 460 kts 144°
2026-05-06 16:04 44.39508 16.77129 34967 ft 460 kts 144°
2026-05-06 16:04 44.34672 16.82993 34972 ft 459 kts 144°
2026-05-06 16:05 44.29838 16.88841 34979 ft 458 kts 144°
2026-05-06 16:05 44.25034 16.94639 34984 ft 456 kts 144°
2026-05-06 16:06 44.20236 17.00416 34976 ft 455 kts 144°
2026-05-06 16:06 44.15474 17.06138 34990 ft 454 kts 144°
2026-05-06 16:07 44.10667 17.11900 34996 ft 454 kts 144°
2026-05-06 16:07 44.05888 17.17616 35009 ft 454 kts 144°
2026-05-06 16:08 44.01087 17.23346 35008 ft 455 kts 144°
2026-05-06 16:08 43.96278 17.29073 34993 ft 456 kts 144°
2026-05-06 16:09 43.91459 17.34800 35012 ft 458 kts 144°
2026-05-06 16:09 43.86610 17.40550 35007 ft 459 kts 144°
2026-05-06 16:10 43.81759 17.46291 35009 ft 460 kts 144°
2026-05-06 16:10 43.76886 17.52046 35015 ft 460 kts 144°
2026-05-06 16:11 43.71832 17.57368 35020 ft 455 kts 151°
2026-05-06 16:11 43.66582 17.62170 35024 ft 454 kts 152°
2026-05-06 16:12 43.62176 17.66160 35020 ft 454 kts 152°
2026-05-06 16:12 43.56917 17.70978 35018 ft 455 kts 152°
2026-05-06 16:13 43.51654 17.75836 35038 ft 456 kts 151°
2026-05-06 16:13 43.46351 17.80734 35031 ft 457 kts 151°
2026-05-06 16:14 43.41101 17.85576 35045 ft 456 kts 150°
2026-05-06 16:14 43.35811 17.90441 35050 ft 456 kts 150°
2026-05-06 16:15 43.30540 17.95276 35044 ft 456 kts 150°
2026-05-06 16:15 43.25268 18.00103 35047 ft 456 kts 150°
2026-05-06 16:16 43.19994 18.04921 35037 ft 456 kts 150°
2026-05-06 16:16 43.14708 18.09740 35042 ft 456 kts 150°
2026-05-06 16:17 43.09442 18.14530 35042 ft 456 kts 150°
2026-05-06 16:17 43.04142 18.19341 35046 ft 457 kts 150°
2026-05-06 16:18 42.98857 18.24127 35046 ft 458 kts 150°
2026-05-06 16:18 42.93532 18.28941 35056 ft 459 kts 150°
2026-05-06 16:19 42.88186 18.33763 35045 ft 461 kts 150°
2026-05-06 16:19 42.82856 18.38562 35050 ft 463 kts 150°
2026-05-06 16:20 42.77457 18.43412 35053 ft 464 kts 150°
2026-05-06 16:20 42.72081 18.48230 35058 ft 466 kts 150°
2026-05-06 16:21 42.66647 18.53091 35055 ft 467 kts 150°
2026-05-06 16:21 42.61201 18.57952 35063 ft 468 kts 150°
2026-05-06 16:22 42.55761 18.62798 35068 ft 468 kts 150°
2026-05-06 16:22 42.50332 18.67624 35065 ft 467 kts 150°
2026-05-06 16:23 42.44900 18.72442 35070 ft 467 kts 150°
2026-05-06 16:23 42.39454 18.77263 35069 ft 467 kts 150°
2026-05-06 16:24 42.34016 18.82064 35070 ft 468 kts 150°
2026-05-06 16:24 42.28561 18.86872 35076 ft 468 kts 150°
2026-05-06 16:25 42.23118 18.91660 35084 ft 468 kts 150°
2026-05-06 16:25 42.17645 18.96463 35068 ft 469 kts 150°
2026-05-06 16:26 42.12154 19.01273 35065 ft 469 kts 151°
2026-05-06 16:26 42.06699 19.06041 35069 ft 469 kts 151°
2026-05-06 16:27 42.01227 19.10814 35067 ft 469 kts 151°
2026-05-06 16:27 41.95745 19.15585 35079 ft 469 kts 151°
2026-05-06 16:28 41.90279 19.20334 35062 ft 470 kts 151°
2026-05-06 16:28 41.84788 19.25095 35071 ft 470 kts 151°
2026-05-06 16:29 41.79273 19.29867 35071 ft 471 kts 151°
2026-05-06 16:29 41.74188 19.35446 35079 ft 477 kts 139°
2026-05-06 16:30 41.70236 19.40669 35063 ft 479 kts 138°
2026-05-06 16:30 41.64721 19.47990 35074 ft 479 kts 139°
2026-05-06 16:31 41.59951 19.54223 35073 ft 480 kts 139°
2026-05-06 16:31 41.55153 19.60436 35073 ft 481 kts 139°
2026-05-06 16:32 41.50311 19.66684 35077 ft 482 kts 139°
2026-05-06 16:32 41.45508 19.72869 35077 ft 484 kts 139°
2026-05-06 16:33 41.40648 19.79118 35076 ft 485 kts 139°
2026-05-06 16:34 41.33343 19.88486 35076 ft 486 kts 139°
2026-05-06 16:34 41.28496 19.94686 35076 ft 487 kts 139°
2026-05-06 16:35 41.23604 20.00928 35064 ft 487 kts 139°
2026-05-06 16:35 41.18705 20.07167 35051 ft 486 kts 139°
2026-05-06 16:36 41.13844 20.13343 35040 ft 486 kts 139°
2026-05-06 16:36 41.08964 20.19531 35059 ft 485 kts 139°
2026-05-06 16:37 41.04104 20.25678 35069 ft 485 kts 139°
2026-05-06 16:37 40.99204 20.31863 35056 ft 485 kts 139°
2026-05-06 16:38 40.94310 20.38028 35067 ft 485 kts 139°
2026-05-06 16:38 40.89443 20.44145 35057 ft 485 kts 139°
2026-05-06 16:39 40.84524 20.50316 35047 ft 486 kts 139°
2026-05-06 16:39 40.79631 20.56440 35053 ft 486 kts 139°
2026-05-06 16:40 40.74721 20.62571 35050 ft 487 kts 139°
2026-05-06 16:40 40.69804 20.68699 35050 ft 488 kts 139°
2026-05-06 16:41 40.64839 20.74874 35046 ft 489 kts 139°
2026-05-06 16:41 40.59896 20.81009 35059 ft 491 kts 139°
2026-05-06 16:42 40.54916 20.87176 35042 ft 493 kts 139°
2026-05-06 16:42 40.49929 20.93341 35044 ft 493 kts 139°
2026-05-06 16:43 40.44896 20.99429 35045 ft 493 kts 140°
2026-05-06 16:43 40.39705 21.05369 35049 ft 494 kts 141°
2026-05-06 16:44 40.34506 21.11284 35044 ft 494 kts 141°
2026-05-06 16:44 40.29328 21.17214 35041 ft 494 kts 141°
2026-05-06 16:45 40.24171 21.23130 35041 ft 494 kts 140°
2026-05-06 16:45 40.19011 21.29039 35041 ft 493 kts 140°
2026-05-06 16:46 40.13851 21.34932 35037 ft 493 kts 140°
2026-05-06 16:46 40.08702 21.40800 35032 ft 492 kts 140°
2026-05-06 16:47 40.03507 21.46708 35031 ft 492 kts 140°
2026-05-06 16:47 39.98374 21.52535 35027 ft 493 kts 140°
2026-05-06 16:48 39.93172 21.58422 35024 ft 493 kts 140°
2026-05-06 16:48 39.87992 21.64268 35036 ft 493 kts 140°
2026-05-06 16:49 39.82806 21.70109 35028 ft 495 kts 141°
2026-05-06 16:49 39.77570 21.75998 35024 ft 497 kts 140°
2026-05-06 16:50 39.72365 21.81840 34966 ft 492 kts 141°
2026-05-06 16:50 39.69810 21.84707 34978 ft 475 kts 141°
2026-05-06 16:50 39.67345 21.87471 34986 ft 460 kts 141°
2026-05-06 16:51 39.62530 21.92853 35021 ft 459 kts 141°
2026-05-06 16:51 39.57647 21.98293 35025 ft 469 kts 141°
2026-05-06 16:52 39.52665 22.03838 35012 ft 472 kts 141°
2026-05-06 16:52 39.47670 22.09392 35015 ft 473 kts 141°
2026-05-06 16:53 39.42704 22.14901 35015 ft 473 kts 141°
2026-05-06 16:53 39.37692 22.20450 35016 ft 472 kts 141°
2026-05-06 16:54 39.32719 22.25945 35016 ft 471 kts 141°
2026-05-06 16:54 39.27737 22.31439 35026 ft 470 kts 141°
2026-05-06 16:55 39.22760 22.36918 35024 ft 469 kts 141°
2026-05-06 16:55 39.17784 22.42383 35021 ft 468 kts 141°
2026-05-06 16:56 39.12829 22.47816 35029 ft 467 kts 141°
2026-05-06 16:56 39.07871 22.53242 35028 ft 467 kts 141°
2026-05-06 16:57 39.02947 22.58619 35027 ft 467 kts 141°
2026-05-06 16:57 38.97982 22.64032 35040 ft 467 kts 141°
2026-05-06 16:58 38.93046 22.69403 35038 ft 467 kts 141°
2026-05-06 16:58 38.88061 22.74817 35035 ft 468 kts 141°
2026-05-06 16:59 38.83915 22.79311 35037 ft 468 kts 141°
2026-05-06 16:59 38.78933 22.84703 35036 ft 469 kts 141°
2026-05-06 17:00 38.73934 22.90103 35037 ft 469 kts 142°
2026-05-06 17:00 38.68962 22.95463 35033 ft 470 kts 142°
2026-05-06 17:01 38.63954 23.00853 35035 ft 469 kts 142°
2026-05-06 17:01 38.58971 23.06205 35039 ft 469 kts 142°
2026-05-06 17:02 38.53972 23.11565 35033 ft 470 kts 142°
2026-05-06 17:02 38.48940 23.16950 35041 ft 470 kts 142°
2026-05-06 17:03 38.43936 23.22294 35048 ft 470 kts 142°
2026-05-06 17:03 38.38915 23.27647 35046 ft 471 kts 142°
2026-05-06 17:04 38.33905 23.32979 35052 ft 470 kts 142°
2026-05-06 17:04 38.28852 23.38346 35046 ft 471 kts 142°
2026-05-06 17:05 38.23835 23.43666 35055 ft 471 kts 142°
2026-05-06 17:05 38.18798 23.48998 35046 ft 471 kts 142°
2026-05-06 17:06 38.13781 23.54293 35048 ft 471 kts 142°
2026-05-06 17:06 38.08723 23.59615 35049 ft 471 kts 142°
2026-05-06 17:07 38.03665 23.64930 35051 ft 471 kts 142°
2026-05-06 17:07 37.98641 23.70203 35055 ft 471 kts 142°
2026-05-06 17:08 37.93580 23.75506 35073 ft 471 kts 142°
2026-05-06 17:08 37.88559 23.80881 35073 ft 473 kts 136°
2026-05-06 17:09 37.84254 23.87131 35070 ft 474 kts 130°
2026-05-06 17:09 37.80047 23.93592 35075 ft 474 kts 130°
2026-05-06 17:10 37.75811 24.00000 35075 ft 475 kts 131°
2026-05-06 17:10 37.71561 24.06346 35083 ft 474 kts 131°
2026-05-06 17:11 37.67276 24.12720 35077 ft 474 kts 131°
2026-05-06 17:11 37.63029 24.19031 35068 ft 475 kts 131°
2026-05-06 17:12 37.58745 24.25389 35071 ft 475 kts 131°
2026-05-06 17:12 37.54094 24.31264 35059 ft 472 kts 146°
2026-05-06 17:13 37.48598 24.35646 35070 ft 470 kts 151°
2026-05-06 17:13 37.43000 24.39923 35071 ft 470 kts 151°
2026-05-06 17:14 37.37425 24.44243 35061 ft 466 kts 150°
2026-05-06 17:14 37.32012 24.48477 35068 ft 458 kts 150°
2026-05-06 17:15 37.26589 24.52717 34889 ft 460 kts 150°
2026-05-06 17:15 37.23873 24.54838 34538 ft 456 kts 150°
2026-05-06 17:15 37.21187 24.56933 34156 ft 453 kts 150°
2026-05-06 17:15 37.18547 24.58991 33739 ft 449 kts 150°
2026-05-06 17:16 37.15897 24.61053 33320 ft 446 kts 150°
2026-05-06 17:16 37.13264 24.63101 32912 ft 443 kts 150°
2026-05-06 17:16 37.10651 24.65131 32527 ft 440 kts 150°
2026-05-06 17:16 37.08054 24.67147 32145 ft 437 kts 150°
2026-05-06 17:17 37.05472 24.69150 31771 ft 434 kts 150°
2026-05-06 17:17 37.02916 24.71132 31387 ft 431 kts 150°
2026-05-06 17:17 37.00407 24.73075 31022 ft 428 kts 150°
2026-05-06 17:17 36.97871 24.75038 30649 ft 426 kts 150°
2026-05-06 17:18 36.95354 24.76985 30280 ft 424 kts 150°
2026-05-06 17:18 36.92850 24.78919 29876 ft 422 kts 150°
2026-05-06 17:18 36.90356 24.80848 29400 ft 420 kts 150°
2026-05-06 17:18 36.87869 24.82779 28954 ft 418 kts 149°
2026-05-06 17:19 36.85437 24.84669 28561 ft 415 kts 149°
2026-05-06 17:19 36.82987 24.86573 28167 ft 412 kts 149°
2026-05-06 17:19 36.80551 24.88463 27785 ft 410 kts 149°
2026-05-06 17:19 36.78133 24.90338 27409 ft 407 kts 149°
2026-05-06 17:20 36.75733 24.92197 27033 ft 404 kts 149°
2026-05-06 17:20 36.73353 24.94038 26660 ft 402 kts 149°
2026-05-06 17:20 36.70983 24.95870 26290 ft 400 kts 149°
2026-05-06 17:20 36.68640 24.97676 25881 ft 399 kts 149°
2026-05-06 17:21 36.66278 24.99486 25482 ft 398 kts 149°
2026-05-06 17:21 36.63920 25.01289 25111 ft 396 kts 149°
2026-05-06 17:21 36.61571 25.03084 24722 ft 396 kts 149°
2026-05-06 17:21 36.59227 25.04875 24358 ft 394 kts 148°
2026-05-06 17:22 36.56890 25.06659 23974 ft 394 kts 148°
2026-05-06 17:22 36.54583 25.08421 23590 ft 393 kts 148°
2026-05-06 17:22 36.52253 25.10199 23167 ft 391 kts 148°
2026-05-06 17:22 36.49941 25.11962 22776 ft 389 kts 148°
2026-05-06 17:23 36.47626 25.13726 22393 ft 387 kts 148°
2026-05-06 17:23 36.45361 25.15452 22026 ft 384 kts 149°
2026-05-06 17:23 36.43056 25.17206 21653 ft 382 kts 149°
2026-05-06 17:23 36.40826 25.18902 21293 ft 380 kts 149°
2026-05-06 17:24 36.38572 25.20616 20938 ft 378 kts 149°
2026-05-06 17:24 36.36328 25.22320 20579 ft 376 kts 149°
2026-05-06 17:24 36.34098 25.24012 20220 ft 374 kts 149°
2026-05-06 17:24 36.31909 25.25672 19871 ft 372 kts 149°
2026-05-06 17:25 36.29703 25.27345 19513 ft 371 kts 149°
2026-05-06 17:25 36.27502 25.29012 19148 ft 370 kts 149°
2026-05-06 17:25 36.25309 25.30672 18799 ft 369 kts 149°
2026-05-06 17:25 36.23109 25.32336 18427 ft 368 kts 149°
2026-05-06 17:26 36.20921 25.33991 18032 ft 367 kts 149°
2026-05-06 17:26 36.18751 25.35630 17653 ft 365 kts 149°
2026-05-06 17:26 36.16589 25.37263 17299 ft 363 kts 149°
2026-05-06 17:26 36.14441 25.38884 16935 ft 360 kts 149°
2026-05-06 17:27 36.12291 25.40451 16579 ft 357 kts 154°
2026-05-06 17:27 36.09990 25.41558 16287 ft 352 kts 163°
2026-05-06 17:27 36.07690 25.42475 15946 ft 350 kts 164°
2026-05-06 17:27 36.05372 25.43375 15610 ft 348 kts 164°
2026-05-06 17:28 36.03069 25.44272 15273 ft 346 kts 163°
2026-05-06 17:28 36.00774 25.45174 14931 ft 345 kts 163°
2026-05-06 17:28 35.98490 25.46081 14593 ft 343 kts 163°
2026-05-06 17:28 35.96249 25.46976 14259 ft 342 kts 163°
2026-05-06 17:29 35.93988 25.47882 13905 ft 341 kts 163°
2026-05-06 17:29 35.91733 25.48787 13537 ft 340 kts 163°
2026-05-06 17:29 35.89482 25.49691 13178 ft 338 kts 162°
2026-05-06 17:29 35.87253 25.50586 12829 ft 336 kts 162°
2026-05-06 17:30 35.85056 25.51468 12490 ft 333 kts 162°
2026-05-06 17:30 35.82877 25.52343 12141 ft 325 kts 162°
2026-05-06 17:30 35.80746 25.53197 11828 ft 319 kts 162°
2026-05-06 17:30 35.78658 25.54034 11512 ft 313 kts 162°
2026-05-06 17:31 35.76603 25.54857 11198 ft 307 kts 162°
2026-05-06 17:31 35.74581 25.55667 10904 ft 305 kts 162°
2026-05-06 17:31 35.72593 25.56462 10605 ft 304 kts 162°
2026-05-06 17:31 35.70589 25.57263 10371 ft 300 kts 161°
2026-05-06 17:32 35.68736 25.58339 10207 ft 292 kts 142°
2026-05-06 17:32 35.67184 25.59891 10058 ft 285 kts 139°
2026-05-06 17:32 35.65648 25.61446 9737 ft 285 kts 139°
2026-05-06 17:32 35.64107 25.62979 9440 ft 284 kts 140°
2026-05-06 17:33 35.62570 25.64495 9152 ft 283 kts 140°
2026-05-06 17:33 35.60850 25.65630 8820 ft 284 kts 170°
2026-05-06 17:33 35.58932 25.65405 8575 ft 277 kts 206°
2026-05-06 17:33 35.57519 25.63942 8307 ft 268 kts 239°
2026-05-06 17:34 35.56557 25.62002 8071 ft 265 kts 242°
2026-05-06 17:34 35.55605 25.60056 7787 ft 264 kts 242°
2026-05-06 17:34 35.54653 25.58127 7517 ft 264 kts 241°
2026-05-06 17:34 35.53697 25.56210 7313 ft 259 kts 240°
2026-05-06 17:35 35.52777 25.54386 7257 ft 244 kts 240°
2026-05-06 17:35 35.51908 25.52670 7159 ft 230 kts 240°
2026-05-06 17:35 35.51096 25.51073 7039 ft 217 kts 240°
2026-05-06 17:36 35.49521 25.47977 6447 ft 213 kts 240°
2026-05-06 17:36 35.48736 25.46440 6130 ft 211 kts 240°
2026-05-06 17:36 35.47963 25.44928 5831 ft 208 kts 240°
2026-05-06 17:36 35.47206 25.43451 5698 ft 201 kts 240°
2026-05-06 17:37 35.46460 25.41998 5596 ft 203 kts 238°
2026-05-06 17:37 35.45395 25.40841 5428 ft 209 kts 206°
2026-05-06 17:37 35.43981 25.40450 5345 ft 212 kts 179°
2026-05-06 17:37 35.42540 25.40777 5167 ft 210 kts 157°
2026-05-06 17:38 35.41271 25.41561 4954 ft 204 kts 150°
2026-05-06 17:38 35.40054 25.42406 4734 ft 198 kts 150°
2026-05-06 17:38 35.38873 25.43229 4550 ft 192 kts 150°
2026-05-06 17:38 35.37700 25.44013 4346 ft 192 kts 160°
2026-05-06 17:39 35.36420 25.44029 4153 ft 187 kts 205°
2026-05-06 17:39 35.35516 25.43007 3974 ft 175 kts 242°
2026-05-06 17:39 35.34972 25.41689 3813 ft 175 kts 246°
2026-05-06 17:39 35.34454 25.40331 3622 ft 176 kts 246°
2026-05-06 17:40 35.33936 25.38972 3440 ft 177 kts 246°
2026-05-06 17:40 35.33411 25.37602 3244 ft 177 kts 246°
2026-05-06 17:40 35.32965 25.36250 3056 ft 169 kts 262°
2026-05-06 17:40 35.32952 25.34850 2872 ft 161 kts 271°
2026-05-06 17:41 35.32966 25.33510 2738 ft 157 kts 273°
2026-05-06 17:41 35.33026 25.32172 2494 ft 156 kts 275°
2026-05-06 17:41 35.33103 25.30859 2254 ft 152 kts 275°
2026-05-06 17:41 35.33184 25.29595 2029 ft 145 kts 275°
2026-05-06 17:42 35.33265 25.28396 1819 ft 142 kts 275°
2026-05-06 17:42 35.33347 25.27179 1604 ft 144 kts 275°
2026-05-06 17:42 35.33431 25.25954 1386 ft 145 kts 275°
2026-05-06 17:42 35.33516 25.24714 1170 ft 148 kts 275°
2026-05-06 17:43 35.33602 25.23449 955 ft 149 kts 274°
2026-05-06 17:43 35.33688 25.22192 765 ft 148 kts 275°
2026-05-06 17:43 35.33779 25.20925 510 ft 148 kts 275°
2026-05-06 17:43 35.33859 25.19697 292 ft 147 kts 275°
2026-05-06 17:44 35.33946 25.18436 94 ft 145 kts 275°
2026-05-06 17:44 35.34026 25.17270 84 ft 111 kts 275°
2026-05-06 17:44 35.34064 25.16751 83 ft 43 kts 275°
2026-05-06 17:44 35.34063 25.16590 88 ft 4 kts 216°
2026-05-06 17:45 35.34044 25.16617 88 ft 5 kts 111°
2026-05-06 17:45 35.34027 25.16654 88 ft 6 kts 124°
2026-05-06 17:45 35.33998 25.16706 86 ft 9 kts 125°
2026-05-06 17:45 35.33965 25.16782 85 ft 11 kts 104°
2026-05-06 17:46 35.33953 25.16888 84 ft 14 kts 92°
2026-05-06 17:46 35.33946 25.17010 82 ft 14 kts 98°
2026-05-06 17:46 35.33933 25.17067 84 ft 6 kts 143°
2026-05-06 17:46 35.33897 25.17075 87 ft 0 kts 162°
2026-05-06 17:47 35.33888 25.17079 86 ft 1 kts 161°
2026-05-06 17:47 35.33884 25.17081 85 ft 0 kts 158°